Location: Calberlah
(52.4230°N, 10.6240°E)
Time: 00:43:35
(UTC+00:00)

Cosmos 2058 Rocket - Pass Details

Date: 19 May 2025
Orbit: 604 x 634 km, 82.5° (Epoch: 23 June)

Event Time Altitude Azimuth Distance (km) Brightness Sun altitude
Rises 20:38:07 0° 202° (SSW) 2,919 6.2 -10.1°
Reaches altitude 10° 20:40:24 10° 208° (SSW) 2,013 5.4 -10.3°
Maximum altitude 20:44:46 53° 285° (WNW) 781 3.9 -10.7°
Drops below altitude 10° 20:49:09 10° 3° (N) 2,016 6.5 -11.1°
Sets 20:51:26 0° 8° (N) 2,923 7.3 -11.3°
